Weather History for New Philadelphia, OH

Change the Weather History Date:

Friday, September 13, 2013

  Actual Average Record
Temperature  
Mean Temperature 59 °F 65 °F  
Max Temperature 66 °F 77 °F 91 °F (1961)
Min Temperature 52 °F 53 °F 37 °F (1985)
Degree Days  
Heating Degree Days 6 2  
Month to date heating degree days 16 17  
Since 1 July heating degree days 30 27  
Cooling Degree Days 0 2  
Month to date cooling degree days 66 43  
Year to date cooling degree days 711 665  
Growing Degree Days 8 (Base 50)    
Moisture  
Dew Point 52 °F    
Average Humidity 76    
Maximum Humidity 93    
Minimum Humidity 58    
Precipitation  
Precipitation 0.05 in 0.14 in 1.73 in (1951)
Month to date precipitation 0.48 1.66  
Year to date precipitation 24.22 28.61  
Sea Level Pressure  
Sea Level Pressure 29.95 in    
Wind  
Wind Speed 7 mph (NNW)    
Max Wind Speed 17 mph    
Max Gust Speed 24 mph    
Visibility 10 miles    
Events Rain    
T = Trace of Precipitation, MM = Missing Value Source: NWS Daily Summary

Daily Weather History Graph

Daily Weather History Graph

Search for Another Location

Airport:

Trip Planner

Search our weather history database for the weather conditions in past years. The results will help you decide how hot, cold, wet, or windy it might be!

Date:

Astronomy

Sep. 13, 2013 Rise Set
Actual Time 7:04 AM EDT 7:37 PM EDT
Civil Twilight 6:37 AM EDT 8:04 PM EDT
Nautical Twilight 6:04 AM EDT 8:37 PM EDT
Astronomical Twilight 5:31 AM EDT 9:10 PM EDT
Moon 3:27 PM EDT (9/13) 12:31 AM EDT (9/13)
Length of Visible Light 13h 27m
Length of Day
12h 32m
First Quarter, 61% of the Moon is Illuminated
Sep 13
First Quarter
Sep 19
Full
Sep 26
Last Quarter
Oct 4
New
Oct 11
First Quarter

Hourly Weather History & Observations

Time (EDT) Temp. Dew Point Humidity Pressure Visibility Wind Dir Wind Speed Gust Speed Precip Events Conditions
12:53 AM 60.1 °F 57.0 °F 90% 29.91 in 10.0 mi North 4.6 mph - 0.11 in Rain Light Rain
1:30 AM 60.8 °F 55.4 °F 82% 29.89 in 10.0 mi Calm Calm - 0.01 in Rain Light Rain
1:53 AM 59.0 °F 57.0 °F 93% 29.88 in 10.0 mi Calm Calm - 0.02 in   Overcast
2:53 AM 57.0 °F 55.0 °F 93% 29.88 in 8.0 mi NNW 3.5 mph - N/A   Partly Cloudy
3:22 AM 57.2 °F 55.4 °F 94% 29.89 in 10.0 mi WNW 3.5 mph - N/A   Mostly Cloudy
3:30 AM 57.2 °F 55.4 °F 94% 29.89 in 10.0 mi WNW 5.8 mph - N/A   Mostly Cloudy
3:53 AM 59.0 °F 55.9 °F 90% 29.89 in 10.0 mi NW 3.5 mph - N/A   Overcast
4:04 AM 59.0 °F 57.2 °F 94% 29.90 in 10.0 mi NW 4.6 mph - N/A   Overcast
4:11 AM 59.0 °F 55.4 °F 88% 29.90 in 8.0 mi NW 8.1 mph - 0.00 in Rain Light Rain
4:18 AM 59.0 °F 55.4 °F 88% 29.90 in 8.0 mi NW 6.9 mph - 0.00 in Rain Light Rain
4:30 AM 59.0 °F 55.4 °F 88% 29.90 in 10.0 mi NW 6.9 mph - 0.00 in   Overcast
4:53 AM 59.0 °F 55.9 °F 90% 29.90 in 10.0 mi NW 8.1 mph - 0.00 in Rain Light Rain
5:02 AM 59.0 °F 55.4 °F 88% 29.91 in 5.0 mi NW 5.8 mph - 0.02 in Rain Rain
5:09 AM 59.0 °F 55.4 °F 88% 29.91 in 5.0 mi NW 5.8 mph - 0.02 in Rain Light Rain
5:26 AM 59.0 °F 55.4 °F 88% 29.91 in 10.0 mi NW 4.6 mph - 0.02 in   Overcast
5:49 AM 57.2 °F 55.4 °F 94% 29.91 in 10.0 mi NNW 8.1 mph - 0.02 in   Overcast
5:53 AM 57.9 °F 55.0 °F 90% 29.91 in 10.0 mi NNW 8.1 mph - 0.02 in   Overcast
6:20 AM 57.2 °F 55.4 °F 94% 29.92 in 10.0 mi NW 5.8 mph - N/A   Overcast
6:27 AM 57.2 °F 55.4 °F 94% 29.92 in 10.0 mi NW 6.9 mph - N/A   Overcast
6:53 AM 57.0 °F 53.1 °F 87% 29.93 in 10.0 mi Variable 6.9 mph - N/A   Overcast
7:46 AM 55.4 °F 51.8 °F 88% 29.95 in 10.0 mi WNW 5.8 mph - N/A   Scattered Clouds
7:53 AM 55.0 °F 52.0 °F 89% 29.94 in 10.0 mi WNW 3.5 mph - N/A   Scattered Clouds
8:53 AM 55.9 °F 51.1 °F 84% 29.96 in 10.0 mi Variable 5.8 mph - N/A   Mostly Cloudy
9:53 AM 60.1 °F 52.0 °F 75% 29.95 in 10.0 mi WNW 10.4 mph - N/A   Overcast
10:53 AM 62.1 °F 52.0 °F 70% 29.96 in 10.0 mi NW 6.9 mph 16.1 mph N/A   Mostly Cloudy
11:05 AM 66.2 °F 51.8 °F 60% 29.96 in 10.0 mi North 11.5 mph 17.3 mph N/A   Scattered Clouds
11:15 AM 62.6 °F 50.0 °F 63% 29.97 in 10.0 mi NW 8.1 mph - N/A   Mostly Cloudy
11:23 AM 66.2 °F 51.8 °F 60% 29.97 in 10.0 mi NNW 10.4 mph 17.3 mph N/A   Mostly Cloudy
11:53 AM 64.9 °F 51.1 °F 61% 29.96 in 10.0 mi NNW 13.8 mph - N/A   Mostly Cloudy
12:53 PM 66.0 °F 51.1 °F 59% 29.96 in 10.0 mi North 9.2 mph 18.4 mph N/A   Mostly Cloudy
1:53 PM 61.0 °F 53.1 °F 75% 29.98 in 10.0 mi NNE 11.5 mph 16.1 mph 0.00 in Rain Light Rain
2:21 PM 60.8 °F 51.8 °F 72% 29.98 in 10.0 mi NNE 8.1 mph - 0.00 in   Overcast
2:31 PM 60.8 °F 51.8 °F 72% 29.98 in 10.0 mi NNE 5.8 mph - 0.00 in   Overcast
2:53 PM 59.0 °F 48.9 °F 69% 29.99 in 10.0 mi North 12.7 mph 24.2 mph 0.00 in Rain Light Rain
3:53 PM 61.0 °F 46.9 °F 60% 29.99 in 10.0 mi North 10.4 mph 20.7 mph 0.00 in   Overcast
4:53 PM 60.1 °F 48.0 °F 64% 30.01 in 10.0 mi NNW 16.1 mph 23.0 mph 0.00 in Rain Light Rain
5:53 PM 57.9 °F 48.9 °F 72% 30.02 in 10.0 mi NNW 4.6 mph - 0.00 in   Overcast
6:53 PM 57.9 °F 48.9 °F 72% 30.02 in 10.0 mi NNW 4.6 mph - N/A   Overcast
7:53 PM 57.0 °F 46.9 °F 69% 30.05 in 10.0 mi NNW 6.9 mph 17.3 mph N/A   Overcast
8:53 PM 55.9 °F 46.9 °F 72% 30.06 in 10.0 mi NNW 5.8 mph - N/A   Overcast
9:53 PM 55.0 °F 46.9 °F 74% 30.07 in 10.0 mi NNW 3.5 mph - N/A   Overcast
10:53 PM 53.1 °F 48.0 °F 83% 30.08 in 10.0 mi North 4.6 mph - 0.01 in   Overcast
11:39 PM 51.8 °F 46.4 °F 82% 30.08 in 10.0 mi NNW 4.6 mph - N/A   Mostly Cloudy
11:53 PM 52.0 °F 46.9 °F 83% 30.08 in 10.0 mi NW 3.5 mph - N/A   Overcast